Powrót do katalogu

FENGYUN 1C DEB

AktywnyPO
NORAD 31658·DEBRIS·🇨🇳 China

Wystrzelony May 10, 1999 z Taiyuan Satellite Launch Center

Loading…

Następne Przeloty (najbliższe 24 godziny)

TLE

ŚwieżeSource: Space-Track

Epoka: Sep 14, 2026, 10:44 UTC

1 31658U 99025CBQ 26257.44758033  .00003069  00000-0  17083-2 0  9993
2 31658  98.1438  81.8199 0212217 261.0291  96.6804 14.00917488736742

Śledź FENGYUN 1C DEB w czasie rzeczywistym z AllMySat

Download on the App Store